Change the Weather History Date:

Saturday, November 3, 2012

  Actual Average Record
Temperature  
Mean Temperature 40 °F -  
Max Temperature 45 °F 50 °F 59 °F (2010)
Min Temperature 34 °F 40 °F 28 °F (2006)
Degree Days  
Heating Degree Days 26    
Moisture  
Dew Point 32 °F    
Average Humidity 75    
Maximum Humidity 93    
Minimum Humidity 57    
Precipitation  
Precipitation 0.00 in 0.09 in - ()
Sea Level Pressure  
Sea Level Pressure 29.24 in    
Wind  
Wind Speed 11 mph ()    
Max Wind Speed 23 mph    
Max Gust Speed 32 mph    
Visibility 6.7 miles    
Events      
Averages and records for this station are not official NWS values.
T = Trace of Precipitation, MM = Missing Value Source: Averaged Metar Reports

Daily Weather History Graph

Daily Weather History Graph

Search for Another Location

Airport or City:

Trip Planner

Search our weather history database for the weather conditions in past years. The results will help you decide how hot, cold, wet, or windy it might be!

Date:

Astronomy

Nov. 03, 2012 Rise Set
Actual Time 7:28 AM GMT 4:48 PM GMT
Civil Twilight 6:51 AM GMT 5:25 PM GMT
Nautical Twilight 6:09 AM GMT 6:06 PM GMT
Astronomical Twilight 5:29 AM GMT 6:47 PM GMT
Moon 8:00 PM GMT (11/3) 11:39 AM GMT (11/3)
Length of Visible Light 10h 34m
Length of Day
9h 19m
Waning Gibbous, 82% of the Moon is Illuminated
Nov 3
Waning Gibbous
Nov 7
Last Quarter
Nov 13
New
Nov 20
First Quarter
Nov 28
Full

Hourly Weather History & Observations

Time (GMT) Temp. Windchill Dew Point Humidity Pressure Visibility Wind Dir Wind Speed Gust Speed Precip Events Conditions
12:00 AM 37 °F - 34 °F 83% 29.26 in 19 mi SSW 8.9 mph - -   Scattered Clouds
12:00 AM 37.4 °F 31.4 °F 33.8 °F 87% 29.24 in 6.2 mi SSW 8.1 mph - N/A   Mostly Cloudy
12:30 AM 37.4 °F 30.8 °F 33.8 °F 87% 29.24 in 6.2 mi SW 9.2 mph - N/A   Scattered Clouds
1:00 AM 37.4 °F 29.3 °F 33.8 °F 87% 29.24 in 6.2 mi WSW 12.7 mph - N/A   Mostly Cloudy
1:30 AM 37.4 °F 30.8 °F 33.8 °F 87% 29.24 in 6.2 mi SW 9.2 mph - N/A   Mostly Cloudy
2:00 AM 37.4 °F 30.8 °F 33.8 °F 87% 29.24 in 6.2 mi WSW 9.2 mph - N/A   Mostly Cloudy
2:30 AM 37.4 °F 31.4 °F 33.8 °F 87% 29.21 in 6.2 mi WSW 8.1 mph - N/A   Scattered Clouds
3:00 AM 35.6 °F 29.2 °F 32.0 °F 87% 29.21 in 6.2 mi SW 8.1 mph - N/A   Scattered Clouds
3:30 AM 35.6 °F 29.2 °F 32.0 °F 87% 29.21 in 6.2 mi WSW 8.1 mph - N/A   Scattered Clouds
4:00 AM 35.6 °F 29.2 °F 32.0 °F 87% 29.21 in 6.2 mi SW 8.1 mph - N/A   Mostly Cloudy
4:30 AM 33.8 °F 27.0 °F 32.0 °F 93% 29.21 in 6.2 mi SW 8.1 mph - N/A   Mostly Cloudy
5:00 AM 35.6 °F 29.2 °F 32.0 °F 87% 29.21 in 6.2 mi SW 8.1 mph - N/A   Mostly Cloudy
5:30 AM 35.6 °F 27.5 °F 32.0 °F 87% 29.24 in 6.2 mi WSW 11.5 mph - N/A   Mostly Cloudy
6:00 AM 35 °F - 32 °F 85% 29.25 in 19 mi WSW 11.2 mph - -   Scattered Clouds
6:00 AM 35.6 °F 27.5 °F 32.0 °F 87% 29.24 in 6.2 mi WSW 11.5 mph - N/A   Scattered Clouds
6:30 AM 35.6 °F 27.5 °F 32.0 °F 87% 29.24 in 6.2 mi WSW 11.5 mph - N/A   Scattered Clouds
7:00 AM 35.6 °F 27.5 °F 32.0 °F 87% 29.24 in 6.2 mi WSW 11.5 mph - N/A   Partly Cloudy
7:30 AM 35.6 °F 27.1 °F 32.0 °F 87% 29.24 in 6.2 mi WSW 12.7 mph - N/A   Partly Cloudy
8:00 AM 35.6 °F 27.5 °F 32.0 °F 87% 29.24 in 6.2 mi WSW 11.5 mph - N/A   Partly Cloudy
8:30 AM 37.4 °F 29.8 °F 32.0 °F 81% 29.24 in 6.2 mi SW 11.5 mph - N/A   Partly Cloudy
9:00 AM 39.2 °F 30.8 °F 32.0 °F 75% 29.27 in 6.2 mi SW 15.0 mph - N/A   Partly Cloudy
9:30 AM 39.2 °F 30.2 °F 33.8 °F 81% 29.24 in 6.2 mi SW 17.3 mph - N/A   Partly Cloudy
10:00 AM 41.0 °F 32.5 °F 32.0 °F 70% 29.24 in 6.2 mi SW 17.3 mph - N/A   Partly Cloudy
10:30 AM 41.0 °F 31.1 °F 32.0 °F 70% 29.27 in 6.2 mi WSW 23.0 mph - N/A   Partly Cloudy
11:00 AM 42.8 °F 34.5 °F 32.0 °F 66% 29.27 in 6.2 mi WSW 18.4 mph - N/A   Partly Cloudy
11:30 AM 42.8 °F 34.8 °F 33.8 °F 70% 29.27 in 6.2 mi SW 17.3 mph - N/A   Partly Cloudy
12:00 PM 44 °F - 34 °F 57% 29.28 in 37 mi SW 15.7 mph - -   Scattered Clouds
12:00 PM 44.6 °F 37.4 °F 33.8 °F 66% 29.27 in 6.2 mi SW 16.1 mph - N/A   Partly Cloudy
12:30 PM 44.6 °F 36.9 °F 33.8 °F 66% 29.27 in 6.2 mi SW 18.4 mph - N/A   Partly Cloudy
1:00 PM 44.6 °F 37.8 °F 32.0 °F 61% 29.24 in 6.2 mi SW 15.0 mph - N/A   Partly Cloudy
1:30 PM 44.6 °F 36.9 °F 32.0 °F 61% 29.24 in 6.2 mi SW 18.4 mph - N/A   Partly Cloudy
2:00 PM 46.4 °F 39.2 °F 32.0 °F 57% 29.24 in 6.2 mi SW 18.4 mph 32.2 mph N/A   Partly Cloudy
2:30 PM 46.4 °F 39.8 °F 32.0 °F 57% 29.24 in 6.2 mi SW 16.1 mph - N/A   Partly Cloudy
3:00 PM 44.6 °F 37.2 °F 32.0 °F 61% 29.24 in 6.2 mi SSW 17.3 mph - N/A   Partly Cloudy
3:30 PM 44.6 °F 37.4 °F 32.0 °F 61% 29.24 in 6.2 mi SW 16.1 mph - N/A   Partly Cloudy
4:00 PM 44.6 °F 37.2 °F 30.2 °F 57% 29.24 in 6.2 mi SSW 17.3 mph - N/A   Partly Cloudy
4:30 PM 42.8 °F 35.4 °F 30.2 °F 61% 29.24 in 6.2 mi SW 15.0 mph - N/A   Partly Cloudy
5:00 PM 41.0 °F 33.1 °F 32.0 °F 70% 29.24 in 6.2 mi SW 15.0 mph - N/A   Partly Cloudy
5:30 PM 41.0 °F 33.1 °F 32.0 °F 70% 29.24 in 6.2 mi SW 15.0 mph - N/A   Partly Cloudy
6:00 PM 41 °F - 32 °F 61% 29.25 in 31 mi SW 13.4 mph - -   Scattered Clouds
6:00 PM 41.0 °F 33.1 °F 32.0 °F 70% 29.24 in 6.2 mi SW 15.0 mph - N/A   Partly Cloudy
6:30 PM 41.0 °F 32.5 °F 32.0 °F 70% 29.24 in 6.2 mi SW 17.3 mph - N/A   Partly Cloudy
7:00 PM 39.2 °F 31.2 °F 32.0 °F 75% 29.24 in 6.2 mi SSW 13.8 mph - N/A   Partly Cloudy
7:30 PM 39.2 °F 32.0 °F 33.8 °F 81% 29.24 in 6.2 mi SSW 11.5 mph - N/A   Scattered Clouds
8:00 PM 39.2 °F 32.0 °F 33.8 °F 81% 29.24 in 6.2 mi SSW 11.5 mph - N/A   Mostly Cloudy
8:30 PM 39.2 °F 32.0 °F 32.0 °F 75% 29.24 in 6.2 mi SSW 11.5 mph - N/A   Mostly Cloudy
9:00 PM 41.0 °F 34.7 °F 33.8 °F 76% 29.24 in 6.2 mi South 10.4 mph - N/A   Mostly Cloudy
9:30 PM 41.0 °F 34.3 °F 33.8 °F 76% 29.24 in 6.2 mi SSW 11.5 mph - N/A   Mostly Cloudy
10:00 PM 42.8 °F 35.4 °F 32.0 °F 66% 29.24 in 6.2 mi South 15.0 mph - N/A   Mostly Cloudy
10:30 PM 41.0 °F 34.3 °F 32.0 °F 70% 29.24 in 6.2 mi SSW 11.5 mph - N/A   Mostly Cloudy
11:00 PM 41.0 °F 34.3 °F 32.0 °F 70% 29.21 in 6.2 mi SSW 11.5 mph - N/A   Mostly Cloudy
11:30 PM 42.8 °F 35.8 °F 32.0 °F 66% 29.21 in 6.2 mi SSW 13.8 mph - N/A   Mostly Cloudy